This is the latest recevied weather packets stored in our database for station/object S56VIL-11. If no packets are shown the sender has not sent any weather packets the latest 1 day(s).
| Time | Temp. | Humidity | Pressure | Rain* | Wind** | Luminosity | Snow |
|---|---|---|---|---|---|---|---|
| 1788316792 | 17.22° C | 62% | 1033.4 hPa | - | - | - | - |
| 1788315892 | 17.22° C | 62% | 1033.3 hPa | - | - | - | - |
| 1788314992 | 17.78° C | 62% | 1033.3 hPa | - | - | - | - |
| 1788314092 | 17.22° C | 62% | 1033.4 hPa | - | - | - | - |
| 1788313192 | 17.22° C | 62% | 1033.4 hPa | - | - | - | - |
| 1788312292 | 17.22° C | 61% | 1033.4 hPa | - | - | - | - |
| 1788311391 | 17.78° C | 61% | 1033.4 hPa | - | - | - | - |
| 1788310492 | 18.33° C | 61% | 1033.6 hPa | - | - | - | - |
| 1788309592 | 18.33° C | 61% | 1033.7 hPa | - | - | - | - |
| 1788308691 | 17.78° C | 61% | 1033.8 hPa | - | - | - | - |
| 1788307791 | 18.89° C | 61% | 1033.9 hPa | - | - | - | - |
| 1788306891 | 18.33° C | 61% | 1034 hPa | - | - | - | - |
| 1788305991 | 18.89° C | 61% | 1034.1 hPa | - | - | - | - |
| 1788305091 | 19.44° C | 60% | 1033.9 hPa | - | - | - | - |
| 1788304191 | 19.44° C | 59% | 1033.9 hPa | - | - | - | - |
| 1788303291 | 20° C | 60% | 1034 hPa | - | - | - | - |
| 1788302391 | 20° C | 60% | 1034.3 hPa | - | - | - | - |
| 1788301491 | 20° C | 60% | 1034.2 hPa | - | - | - | - |
| 1788300591 | 19.44° C | 60% | 1033.9 hPa | - | - | - | - |
| 1788299691 | 20° C | 60% | 1033.7 hPa | - | - | - | - |
| 1788298791 | 20° C | 60% | 1033.5 hPa | - | - | - | - |
* Rain since midnight (hover to see other rain measurements)
** Current wind speed in m/s (hover to see current wind gust speed)